Weather History for Redding, CA

Change the Weather History Date:

Sunday, February 9, 2014

  Actual Average Record
Temperature  
Mean Temperature 53 °F -  
Max Temperature 54 °F 59 °F 78 °F (2006)
Min Temperature 51 °F 38 °F 27 °F (2003)
Degree Days  
Heating Degree Days 12    
Cooling Degree Days 0    
Growing Degree Days 2 (Base 50)    
Moisture  
Dew Point 53 °F    
Average Humidity 100    
Maximum Humidity 100    
Minimum Humidity 100    
Precipitation  
Precipitation 0.82 in 0.20 in 0.82 in (2014)
Month to date precipitation 3.18 1.82  
Year to date precipitation 3.60 7.78  
Since 1 July precipitation 7.10 21.54  
Sea Level Pressure  
Sea Level Pressure 30.02 in    
Wind  
Wind Speed 3 mph (NW)    
Max Wind Speed 10 mph    
Max Gust Speed 13 mph    
Visibility 3 miles    
Events Rain    
T = Trace of Precipitation, MM = Missing Value Source: NWS Daily Summary

Daily Weather History Graph

Daily Weather History Graph

Search for Another Location

Airport:

Trip Planner

Search our weather history database for the weather conditions in past years. The results will help you decide how hot, cold, wet, or windy it might be!

Date:

Astronomy

Feb. 09, 2014 Rise Set
Actual Time 7:10 AM PST 5:37 PM PST
Civil Twilight 6:41 AM PST 6:05 PM PST
Nautical Twilight 6:09 AM PST 6:37 PM PST
Astronomical Twilight 5:37 AM PST 7:09 PM PST
Moon 1:21 PM PST (2/9) 3:20 AM PST (2/9)
Length of Visible Light 11h 23m
Length of Day
10h 27m
Waxing Gibbous, 78% of the Moon is Illuminated
Feb 9
Waxing Gibbous
Feb 14
Full
Feb 22
Last Quarter
Mar 1
New
Mar 8
First Quarter

Hourly Weather History & Observations

Time (PST) Temp. Dew Point Humidity Pressure Visibility Wind Dir Wind Speed Gust Speed Precip Events Conditions
12:10 AM 53.6 °F 53.6 °F 100% 30.05 in 2.5 mi South 9.2 mph - 0.01 in Rain Light Rain
12:17 AM 53.6 °F 53.6 °F 100% 30.05 in 3.0 mi South 9.2 mph - 0.01 in Rain Light Rain
12:31 AM 53.6 °F 53.6 °F 100% 30.04 in 2.5 mi South 4.6 mph - 0.02 in Rain Light Rain
12:46 AM 53.6 °F 53.6 °F 100% 30.05 in 3.0 mi SW 3.5 mph - 0.03 in Rain Light Rain
12:53 AM 53.1 °F 53.1 °F 100% 30.05 in 3.0 mi Calm Calm - 0.03 in Rain Light Rain
1:20 AM 53.6 °F 53.6 °F 100% 30.06 in 7.0 mi Calm Calm - 0.02 in Rain Light Rain
1:53 AM 53.1 °F 53.1 °F 100% 30.05 in 4.0 mi Calm Calm - 0.06 in Rain Light Rain
2:02 AM 53.6 °F 53.6 °F 100% 30.04 in 4.0 mi Calm Calm - 0.02 in Rain Light Rain
2:31 AM 51.8 °F 51.8 °F 100% 30.04 in 1.8 mi Calm Calm - 0.05 in Rain Light Rain
2:41 AM 51.8 °F 51.8 °F 100% 30.04 in 1.0 mi Calm Calm - 0.05 in Rain Light Rain
2:45 AM 51.8 °F 51.8 °F 100% 30.03 in 0.8 mi SE 3.5 mph - 0.06 in Rain Light Rain
2:53 AM 52.0 °F 52.0 °F 100% 30.03 in 1.0 mi SE 3.5 mph - 0.06 in Rain Light Rain
3:20 AM 51.8 °F 51.8 °F 100% 30.03 in 0.8 mi SSE 4.6 mph - 0.02 in Rain Light Rain
3:31 AM 51.8 °F 51.8 °F 100% 30.04 in 1.5 mi South 3.5 mph - 0.02 in Rain Light Rain
3:41 AM 51.8 °F 51.8 °F 100% 30.04 in 1.5 mi Calm Calm - 0.03 in Rain Light Rain
3:53 AM 52.0 °F 52.0 °F 100% 30.03 in 2.5 mi Calm Calm - 0.04 in Rain Light Rain
4:02 AM 51.8 °F 51.8 °F 100% 30.03 in 1.5 mi Calm Calm - 0.00 in Rain Light Rain
4:05 AM 51.8 °F 51.8 °F 100% 30.03 in 1.2 mi Calm Calm - 0.00 in Rain Light Rain
4:16 AM 51.8 °F 51.8 °F 100% 30.03 in 1.5 mi Calm Calm - 0.00 in Rain Light Rain
4:35 AM 51.8 °F 51.8 °F 100% 30.04 in 3.0 mi NW 3.5 mph - 0.01 in Rain Light Rain
4:43 AM 51.8 °F 51.8 °F 100% 30.04 in 2.5 mi NNW 3.5 mph - 0.01 in Rain Light Rain
4:53 AM 52.0 °F 52.0 °F 100% 30.04 in 4.0 mi Calm Calm - 0.01 in Rain Light Rain
5:41 AM 51.8 °F 51.8 °F 100% 30.03 in 10.0 mi Calm Calm - 0.02 in   Overcast
5:53 AM 51.1 °F 51.1 °F 100% 30.03 in 5.0 mi Calm Calm - 0.02 in   Overcast
6:20 AM 51.8 °F 51.8 °F 100% 30.04 in 5.0 mi Calm Calm - N/A   Overcast
6:37 AM 51.8 °F 51.8 °F 100% 30.04 in 1.8 mi Calm Calm - N/A   Overcast
6:53 AM 51.1 °F 51.1 °F 100% 30.05 in 1.5 mi Calm Calm - N/A   Overcast
7:22 AM 51.8 °F 51.8 °F 100% 30.04 in 1.0 mi Calm Calm - N/A   Overcast
7:48 AM 51.8 °F 51.8 °F 100% 30.04 in 1.0 mi Calm Calm - N/A   Mist
7:53 AM 51.1 °F 51.1 °F 100% 30.04 in 1.0 mi Calm Calm - N/A   Overcast
8:31 AM 51.8 °F 51.8 °F 100% 30.05 in 1.5 mi Calm Calm - N/A   Overcast
8:53 AM 52.0 °F 52.0 °F 100% 30.05 in 1.8 mi Calm Calm - 0.01 in Rain Light Rain
9:02 AM 51.8 °F 51.8 °F 100% 30.06 in 2.5 mi West 3.5 mph - 0.00 in Rain Light Rain
9:12 AM 51.8 °F 51.8 °F 100% 30.06 in 2.5 mi Calm Calm - 0.02 in Rain Light Rain
9:15 AM 51.8 °F 51.8 °F 100% 30.06 in 3.0 mi West 3.5 mph - 0.02 in Rain Light Rain
9:53 AM 52.0 °F 52.0 °F 100% 30.06 in 4.0 mi West 3.5 mph - 0.04 in Rain Light Rain
10:53 AM 53.1 °F 53.1 °F 100% 30.05 in 4.0 mi Calm Calm - 0.01 in Rain Light Rain
11:53 AM 53.1 °F 53.1 °F 100% 30.02 in 3.0 mi WNW 3.5 mph - 0.08 in Rain Light Rain
12:04 PM 53.6 °F 53.6 °F 100% 30.02 in 2.0 mi WNW 3.5 mph - 0.04 in Rain Rain
12:13 PM 53.6 °F 53.6 °F 100% 30.02 in 1.2 mi West 3.5 mph - 0.08 in Rain Heavy Rain
12:20 PM 53.6 °F 53.6 °F 100% 30.02 in 1.2 mi WNW 3.5 mph - 0.13 in Rain Rain
12:53 PM 53.1 °F 53.1 °F 100% 30.01 in 2.0 mi WNW 3.5 mph - 0.18 in Rain Light Rain
12:59 PM 53.6 °F 53.6 °F 100% 30.01 in 3.0 mi Calm Calm - 0.00 in Rain Light Rain
1:53 PM 54.0 °F 54.0 °F 100% 29.99 in 3.0 mi Calm Calm - 0.08 in Rain Rain
2:04 PM 53.6 °F 53.6 °F 100% 29.99 in 2.0 mi Calm Calm - 0.01 in Rain Light Rain
2:53 PM 54.0 °F 54.0 °F 100% 29.97 in 2.0 mi North 4.6 mph - 0.08 in Rain Light Rain
3:00 PM 53.6 °F 53.6 °F 100% 29.98 in 5.0 mi North 4.6 mph - 0.00 in Rain Light Rain
3:09 PM 53.6 °F 53.6 °F 100% 29.99 in 5.0 mi Calm Calm - 0.00 in Rain Light Rain
3:32 PM 53.6 °F 53.6 °F 100% 29.98 in 5.0 mi NNE 3.5 mph - 0.03 in Rain Light Rain
3:50 PM 53.6 °F 53.6 °F 100% 29.99 in 2.0 mi NNW 3.5 mph - 0.09 in Rain Heavy Rain
3:53 PM 53.1 °F 53.1 °F 100% 29.98 in 1.5 mi North 4.6 mph - 0.10 in Rain Rain
4:02 PM 53.6 °F 53.6 °F 100% 29.98 in 1.2 mi North 3.5 mph - 0.04 in Rain Heavy Rain
4:12 PM 53.6 °F 53.6 °F 100% 29.98 in 1.8 mi North 4.6 mph - 0.12 in Rain Heavy Rain
4:19 PM 53.6 °F 53.6 °F 100% 29.97 in 2.0 mi North 4.6 mph - 0.18 in Rain Heavy Rain
4:30 PM 53.6 °F 53.6 °F 100% 29.98 in 4.0 mi Calm Calm - 0.20 in Rain Light Rain
4:43 PM 53.6 °F 53.6 °F 100% 29.98 in 1.8 mi Calm Calm - 0.26 in Rain Rain
4:53 PM 53.1 °F 53.1 °F 100% 29.97 in 2.0 mi NNE 6.9 mph - 0.29 in Rain Light Rain
4:59 PM 53.6 °F 53.6 °F 100% 29.97 in 3.0 mi NNE 5.8 mph - 0.01 in Rain Light Rain
5:53 PM 53.1 °F 53.1 °F 100% 29.97 in 6.0 mi NNE 4.6 mph - 0.16 in Rain Light Rain
6:53 PM 53.1 °F 53.1 °F 100% 29.99 in 3.0 mi SW 3.5 mph - 0.10 in Rain Light Rain
7:03 PM 53.6 °F 53.6 °F 100% 29.97 in 2.5 mi NNE 4.6 mph - 0.06 in Rain Heavy Rain
7:12 PM 53.6 °F 53.6 °F 100% 29.97 in 6.0 mi North 4.6 mph - 0.09 in Rain Light Rain
7:48 PM 53.6 °F 53.6 °F 100% 30.01 in 3.0 mi WNW 5.8 mph - 0.19 in Rain Heavy Rain
7:53 PM 53.1 °F 53.1 °F 100% 30.02 in 3.0 mi NW 4.6 mph - 0.22 in Rain Rain
8:06 PM 51.8 °F 51.8 °F 100% 30.03 in 2.5 mi SSW 4.6 mph - 0.06 in Rain Heavy Rain
8:15 PM 51.8 °F 51.8 °F 100% 30.01 in 4.0 mi ESE 3.5 mph - 0.10 in Rain Rain
8:53 PM 52.0 °F 51.1 °F 97% 29.99 in 10.0 mi ENE 3.5 mph - 0.15 in Rain Light Rain
9:29 PM 51.8 °F 51.8 °F 100% 30.02 in 10.0 mi West 4.6 mph - 0.00 in   Overcast
9:53 PM 51.1 °F 51.1 °F 100% 30.01 in 10.0 mi NW 5.8 mph - 0.00 in Rain Light Rain
10:15 PM 51.8 °F 51.8 °F 100% 30.02 in 10.0 mi NW 3.5 mph - 0.00 in   Scattered Clouds
10:53 PM 51.1 °F 50.0 °F 96% 30.04 in 10.0 mi Calm Calm - 0.00 in   Overcast
11:53 PM 50.0 °F 50.0 °F 100% 30.05 in 10.0 mi NNW 4.6 mph - N/A   Mostly Cloudy